Weather History for Orange, MA

Change the Weather History Date:

Friday, May 9, 2014

  Actual Average Record
Temperature  
Mean Temperature 54 °F -  
Max Temperature 57 °F 65 °F 91 °F (2000)
Min Temperature 51 °F 39 °F 36 °F (1997)
Degree Days  
Heating Degree Days 11    
Growing Degree Days 4 (Base 50)    
Moisture  
Dew Point 51 °F    
Average Humidity 90    
Maximum Humidity 97    
Minimum Humidity 75    
Precipitation  
Precipitation 0.02 in - - ()
Sea Level Pressure  
Sea Level Pressure 30.16 in    
Wind  
Wind Speed 2 mph (East)    
Max Wind Speed 8 mph    
Max Gust Speed -    
Visibility 6 miles    
Events Rain    
Averages and records for this station are not official NWS values.
T = Trace of Precipitation, MM = Missing Value Source: NWS Daily Summary

Daily Weather History Graph

Daily Weather History Graph

Search for Another Location

Airport:

Trip Planner

Search our weather history database for the weather conditions in past years. The results will help you decide how hot, cold, wet, or windy it might be!

Date:

Astronomy

May. 09, 2014 Rise Set
Actual Time 5:33 AM EDT 7:58 PM EDT
Civil Twilight 5:02 AM EDT 8:29 PM EDT
Nautical Twilight 4:22 AM EDT 9:09 PM EDT
Astronomical Twilight 3:39 AM EDT 9:53 PM EDT
Moon 2:46 PM EDT (5/9) 2:41 AM EDT (5/9)
Length of Visible Light 15h 27m
Length of Day
14h 24m
Waxing Gibbous, 73% of the Moon is Illuminated
May 9
Waxing Gibbous
May 14
Full
May 21
Last Quarter
May 28
New
Jun 5
First Quarter

Hourly Weather History & Observations

Time (EDT) Temp. Dew Point Humidity Pressure Visibility Wind Dir Wind Speed Gust Speed Precip Events Conditions
12:44 AM 54.0 °F 50.0 °F 86% 30.18 in 10.0 mi Calm Calm - 0.00 in Rain Light Rain
12:52 AM 54.0 °F 50.0 °F 86% 30.17 in 10.0 mi Calm Calm - 0.00 in Rain Light Rain
1:52 AM 54.0 °F 52.0 °F 93% 30.14 in 9.0 mi Calm Calm - 0.00 in   Overcast
2:09 AM 54.0 °F 52.0 °F 93% 30.16 in 8.0 mi NW 3.5 mph - N/A   Overcast
2:52 AM 54.0 °F 51.1 °F 90% 30.18 in 9.0 mi Calm Calm - N/A   Overcast
3:52 AM 54.0 °F 52.0 °F 93% 30.18 in 10.0 mi Calm Calm - N/A   Overcast
4:52 AM 54.0 °F 52.0 °F 93% 30.18 in 7.0 mi ENE 3.5 mph - N/A   Overcast
5:22 AM 54.0 °F 52.0 °F 93% 30.18 in 8.0 mi Calm Calm - N/A   Overcast
5:52 AM 54.0 °F 52.0 °F 93% 30.20 in 8.0 mi Calm Calm - N/A   Overcast
6:50 AM 55.4 °F 51.8 °F 88% 30.19 in 8.0 mi Calm Calm - N/A   Overcast
6:52 AM 55.0 °F 52.0 °F 89% 30.19 in 8.0 mi Calm Calm - N/A   Overcast
6:59 AM 55.0 °F 52.0 °F 89% 30.19 in 8.0 mi ENE 4.6 mph - N/A   Overcast
7:13 AM 54.0 °F 48.0 °F 80% 30.20 in 10.0 mi ENE 6.9 mph - N/A   Overcast
7:20 AM 54.0 °F 46.9 °F 77% 30.20 in 10.0 mi ENE 5.8 mph - N/A   Overcast
7:52 AM 54.0 °F 46.0 °F 75% 30.21 in 10.0 mi NE 5.8 mph - N/A   Overcast
8:47 AM 51.8 °F 46.4 °F 82% 30.22 in 8.0 mi ENE 5.8 mph - 0.00 in Rain Light Rain
8:52 AM 52.0 °F 46.0 °F 80% 30.23 in 7.0 mi NE 4.6 mph - 0.00 in Rain Light Rain
9:00 AM 51.1 °F 46.9 °F 86% 30.22 in 9.0 mi NE 4.6 mph - 0.00 in Rain Light Rain
9:52 AM 51.1 °F 48.0 °F 89% 30.22 in 3.0 mi NE 4.6 mph - 0.02 in Rain Light Rain
11:52 AM 52.0 °F 48.0 °F 86% 30.21 in 8.0 mi East 5.8 mph - N/A   Overcast
12:52 PM 53.1 °F 48.9 °F 86% 30.21 in 10.0 mi ESE 4.6 mph - N/A   Overcast
1:34 PM 53.1 °F 48.9 °F 86% 30.19 in 1.8 mi ESE 5.8 mph - N/A   Overcast
1:39 PM 53.1 °F 50.0 °F 89% 30.19 in 1.2 mi North - - N/A   Mist
1:52 PM 53.1 °F 50.0 °F 89% 30.19 in - North - - N/A   Unknown
2:52 PM - - N/A% 30.17 in - North - - N/A   Unknown
3:52 PM - - N/A% 30.15 in - North - - N/A   Unknown
4:52 PM - - N/A% 30.13 in - North - - N/A   Unknown
5:52 PM - - N/A% 30.12 in - North - - N/A   Unknown
6:41 PM 55.9 °F 55.0 °F 97% 30.12 in 1.8 mi North - - N/A   Mist
6:49 PM 55.4 °F 53.6 °F 94% 30.12 in 2.0 mi Calm Calm - N/A   Mist
6:52 PM 55.9 °F 54.0 °F 93% 30.13 in 2.0 mi Calm Calm - N/A   Mist
7:06 PM 55.9 °F 55.0 °F 97% 30.12 in 1.5 mi North - - N/A   Mist
7:19 PM 55.9 °F 55.0 °F 97% 30.12 in 1.5 mi North - - N/A   Overcast
7:28 PM 55.9 °F 55.0 °F 97% 30.11 in 1.2 mi SSE 6.9 mph - N/A   Overcast
7:36 PM 55.9 °F 55.0 °F 97% 30.11 in 1.5 mi SSE 6.9 mph - N/A   Overcast
7:52 PM 55.9 °F 55.0 °F 97% 30.12 in 2.0 mi North - - N/A   Overcast
8:04 PM 57.0 °F 54.0 °F 89% 30.10 in 2.5 mi SSE 8.1 mph - N/A   Overcast
8:19 PM 55.9 °F 54.0 °F 93% 30.10 in 3.0 mi North - - N/A   Overcast
8:52 PM 55.9 °F 54.0 °F 93% 30.11 in 8.0 mi SSE 4.6 mph - N/A   Overcast
9:29 PM 55.9 °F 54.0 °F 93% 30.08 in 6.0 mi North - - N/A   Overcast
9:52 PM 55.9 °F 54.0 °F 93% 30.09 in 10.0 mi North - - N/A   Overcast
11:32 PM 55.0 °F 54.0 °F 96% 30.06 in 3.0 mi North - - 0.00 in   Overcast
11:52 PM 55.0 °F 54.0 °F 96% 30.06 in 4.0 mi Calm Calm - 0.00 in   Overcast